DELTA 1 DEB, 7069

Orbit data source: Space-Track

DELTA 1 DEB, 7069 is space debris in SSO originally from a launch on Tue, 06 Nov 1973 UTC launched from the Air Force Western Test Range (AFWTR). Debris objects in space refer to the collection of defunct objects orbiting the Earth. Examples of debris include non-operational satellites, rocket bodies, and fragments generated from explosions, collisions, or faulty payload assembly.

Loading next visibility...
Identifier
7069, 1973-086BM
Orbit
SSO
Country
Flag of USUS
Related business
Manufacturer
Unknown
Mission
Spacecraft
Bus & Motor
Unknown
Mass
Unknown
Launch date (UTC)
1973-11-06 (52 years ago)
Launch vehicle
Unknown
Launch site
Air Force Western Test Range (AFWTR)
Object type
Payload
Rocket body
Debris
Shape & HBR
Unknown shape, 0.1 m
Radar Cross Section
Small (<0.1 m²)

Expand to show TLE details & history
Last TLE update: 20 hours ago

TLE from 20 hours ago
0 DELTA 1 DEB
1 07069U 73086BM  25292.45138811  .00002669  00000-0  30102-2 0  9998
2 07069 102.7705 256.3841 0241830 194.3358 165.0823 13.60255944529613
Epoch: 2025-10-19T10:49Z
TLE epoch observation values (Epoch: 2025-10-19T10:49:59.932Z)
Latitude
-0.00001°
Longitude
65.71652°
Altitude
1,210.973 km
Speed
7.163 km/s
True Right ascension
17h 05m 32s
True Declination
0° 00' 00"
Sunlit
Object was in daylight at epoch
Visualization orbit readout
Latitude
Unknown
Longitude
Unknown
Altitude
Unknown
Speed
Unknown
Apparent Right ascension
Unknown
Apparent Declination
Unknown
Sunlit
N/A
Visualization observer readout
Local Sidereal Time
01:35:40
Azimuth
Unknown
Elevation
Unknown
Doppler factor
Unknown
Orbital elements
Apogee altitude
1,211.435 km
Perigee altitude
853.025 km
Semi-major axis
7,410.367 km
Eccentricity
0.02418
Inclination
102.7705°
RAAN
256.3841°
Arg. of periapsis
194.3358°
True anomaly
165.7754°
Mean anomaly
165.0823°
Eccentric anomaly
165.43084°
Mean motion
3.40239 °/min
Orbital period
105.81 mins
BSTAR
0.0030102
Loading maneuver chart data...
Computing Atmospheric mass density...
Loading historical data...
Loading historical data...
Loading historical data...
Loading historical data...
Loading historical data...
Loading historical data...
Loading historical data...

Documentation

Showing up to 5 results
|